Mytilini, Greece

4:51 AM EEST on July 23, 2018 (GMT +0300)
Odysseas Elytis

Weather History for LGMT - July, 2018

Change the Weather History Date:

Thursday, July 12, 2018

  Actual Average Record
Temperature  
Mean Temperature 84 °F -  
Max Temperature 92 °F 87 °F 99 °F (2012)
Min Temperature 75 °F 71 °F 68 °F (2006)
Cooling Degree Days 18    
Growing Degree Days 34 (Base 50)    
Moisture  
Dew Point 63 °F    
Average Humidity 49    
Maximum Humidity 74    
Minimum Humidity 24    
Precipitation  
Precipitation 0.00 in 0.00 in - ()
Sea Level Pressure  
Sea Level Pressure 29.84 in    
Wind  
Wind Speed 10 mph ()    
Max Wind Speed 17 mph    
Max Gust Speed -    
Visibility 7.6 miles    
Events      
Averages and records for this station are not official NWS values.
T = Trace of Precipitation, MM = Missing Value Source: Averaged Metar Reports

Daily Weather History Graph

Daily Weather History Graph

Search for Another Location

Airport or City:

Astronomy

Jul. 12, 2018 Rise Set
Actual Time 5:57 AM EEST 8:40 PM EEST
Civil Twilight 5:26 AM EEST 9:11 PM EEST
Nautical Twilight 4:46 AM EEST 9:51 PM EEST
Astronomical Twilight 4:02 AM EEST 10:35 PM EEST
Moon 5:05 AM EEST (7/12) 8:04 PM EEST (7/12)
Length of Visible Light 15h 45m
Length of Day
14h 42m
Waning Crescent, 1% of the Moon is Illuminated
Jul 12
Waning Crescent
Jul 13
New
Jul 19
First Quarter
Jul 27
Full
Aug 4
Last Quarter

Hourly Weather History & Observations

Time (EEST) Temp. Heat Index Dew Point Humidity Pressure Visibility Wind Dir Wind Speed Gust Speed Precip Events Conditions
4:50 AM 78.8 °F - 68.0 °F 69% 29.83 in - NNW 10.4 mph - N/A   Clear
5:20 AM 78.8 °F - 68.0 °F 69% 29.83 in - NNW 10.4 mph - N/A   Clear
5:50 AM 77.0 °F - 68.0 °F 74% 29.83 in - NW 4.6 mph - N/A   Clear
6:00 AM 77 °F - 69 °F 69% 29.84 in 9 mi NW 4.6 mph - -  
6:20 AM 77.0 °F - 68.0 °F 74% 29.83 in - NW 8.1 mph - N/A   Clear
6:50 AM 77.0 °F - 68.0 °F 74% 29.83 in - NW 5.8 mph - N/A   Clear
7:20 AM 78.8 °F - 68.0 °F 69% 29.83 in - NW 6.9 mph - N/A   Clear
7:50 AM 78.8 °F - 66.2 °F 65% 29.83 in - NW 6.9 mph - N/A   Clear
8:20 AM 78.8 °F - 66.2 °F 65% 29.83 in - NW 6.9 mph - N/A   Clear
8:50 AM 78.8 °F - 66.2 °F 65% 29.83 in - NNW 11.5 mph - N/A   Clear
9:00 AM 80 °F - 66 °F 54% 29.85 in 7 mi NNW 11.5 mph - -  
9:20 AM 78.8 °F - 66.2 °F 65% 29.86 in - NNW 11.5 mph - N/A   Clear
9:50 AM 82.4 °F 83.4 °F 62.6 °F 51% 29.86 in - NNW 9.2 mph - N/A   Clear
10:20 AM 82.4 °F 83.4 °F 62.6 °F 51% 29.86 in - NNW 9.2 mph - N/A   Clear
10:50 AM 84.2 °F 85.6 °F 64.4 °F 51% 29.86 in - NNW 10.4 mph - N/A   Clear
11:20 AM 84.2 °F 85.6 °F 64.4 °F 51% 29.86 in - NNW 10.4 mph - N/A   Clear
11:50 AM 86.0 °F 87.3 °F 64.4 °F 48% 29.86 in - NNW 12.7 mph - N/A   Clear
12:00 PM 85 °F - 64 °F 40% 29.87 in 9 mi NNW 12.7 mph - -  
12:20 PM 86.0 °F 87.3 °F 64.4 °F 48% 29.86 in - NNW 12.7 mph - N/A   Clear
12:50 PM 87.8 °F 88.5 °F 62.6 °F 43% 29.83 in - NNW 16.1 mph - N/A   Clear
1:20 PM 87.8 °F 88.5 °F 62.6 °F 43% 29.83 in - NNW 12.7 mph - N/A   Clear
1:50 PM 87.8 °F 88.5 °F 62.6 °F 43% 29.83 in - NNW 16.1 mph - N/A   Clear
2:20 PM 89.6 °F 90.1 °F 62.6 °F 40% 29.83 in - NNW 17.3 mph - N/A   Clear
2:50 PM 89.6 °F 88.9 °F 59.0 °F 36% 29.83 in - NNW 17.3 mph - N/A   Clear
3:00 PM 90 °F - 58 °F 24% 29.85 in 7 mi NNW 17.3 mph - -  
3:20 PM 89.6 °F 88.9 °F 59.0 °F 36% 29.83 in - NNW 17.3 mph - N/A   Clear
4:20 PM 91.4 °F 90.7 °F 59.0 °F 34% 29.83 in - NNW 17.3 mph - N/A   Clear
4:50 PM 91.4 °F 89.9 °F 57.2 °F 31% 29.83 in - NNW 17.3 mph - N/A   Clear
5:20 PM 91.4 °F 89.9 °F 57.2 °F 31% 29.83 in - NNW 17.3 mph - N/A   Clear
5:50 PM 89.6 °F 87.7 °F 55.4 °F 31% 29.83 in - NNW 15.0 mph - N/A   Clear
6:20 PM 89.6 °F 87.3 °F 53.6 °F 29% 29.83 in - NNW 13.8 mph - N/A   Clear
6:50 PM 87.8 °F 85.7 °F 53.6 °F 31% 29.83 in - NNW 13.8 mph - N/A   Clear
7:20 PM 87.8 °F 85.7 °F 53.6 °F 31% 29.83 in - NNW 13.8 mph - N/A   Clear
7:50 PM 86.0 °F 84.5 °F 55.4 °F 35% 29.83 in - NNW 10.4 mph - N/A   Clear
8:20 PM 84.2 °F 83.0 °F 55.4 °F 37% 29.83 in - NNW 10.4 mph - N/A   Clear
8:50 PM 82.4 °F 83.4 °F 62.6 °F 51% 29.86 in - NNW 8.1 mph - N/A   Clear
9:00 PM 83 °F - 63 °F 40% 29.86 in 6 mi NNW 8.1 mph - -  
9:20 PM 82.4 °F 83.4 °F 62.6 °F 51% 29.86 in - NNW 9.2 mph - N/A   Clear
9:50 PM 82.4 °F 83.9 °F 64.4 °F 54% 29.86 in - NNW 9.2 mph - N/A   Clear
10:20 PM 82.4 °F 83.9 °F 64.4 °F 54% 29.86 in - NNW 9.2 mph - N/A   Clear
10:50 PM 82.4 °F 85.4 °F 68.0 °F 62% 29.86 in - NNW 9.2 mph - N/A   Clear